Year,Month,Day,Hour,Minute,Value (Times are PST for temperature in C)
2007,08,11,00,00,14.10
2007,08,11,00,01,14.10
2007,08,11,00,02,14.10
2007,08,11,00,03,14.10
2007,08,11,00,04,14.10
2007,08,11,00,05,14.10
2007,08,11,00,06,14.10
2007,08,11,00,07,14.10
2007,08,11,00,08,14.10
2007,08,11,00,09,14.10
2007,08,11,00,10,14.10
2007,08,11,00,11,14.10
2007,08,11,00,12,14.00
2007,08,11,00,13,14.00
2007,08,11,00,14,14.00
2007,08,11,00,15,14.00
2007,08,11,00,16,14.00
2007,08,11,00,17,14.00
2007,08,11,00,18,14.00
2007,08,11,00,19,14.00
2007,08,11,00,20,14.00
2007,08,11,00,21,14.00
2007,08,11,00,22,14.00
2007,08,11,00,23,14.00
2007,08,11,00,24,14.00
2007,08,11,00,25,13.90
2007,08,11,00,26,13.90
2007,08,11,00,27,13.90
2007,08,11,00,28,13.80
2007,08,11,00,29,13.80
2007,08,11,00,30,13.70
2007,08,11,00,31,13.70
2007,08,11,00,32,13.70
2007,08,11,00,33,13.70
2007,08,11,00,34,13.60
2007,08,11,00,35,13.60
2007,08,11,00,36,13.60
2007,08,11,00,37,13.60
2007,08,11,00,38,13.60
2007,08,11,00,39,13.50
2007,08,11,00,40,13.50
2007,08,11,00,41,13.40
2007,08,11,00,42,13.40
2007,08,11,00,43,13.30
2007,08,11,00,44,13.30
2007,08,11,00,45,13.30
2007,08,11,00,46,13.30
2007,08,11,00,47,13.30
2007,08,11,00,48,13.20
2007,08,11,00,49,13.20
2007,08,11,00,50,13.20
2007,08,11,00,51,13.10
2007,08,11,00,52,13.10
2007,08,11,00,53,13.10
2007,08,11,00,54,13.10
2007,08,11,00,55,13.10
2007,08,11,00,56,13.10
2007,08,11,00,57,13.10
2007,08,11,00,58,13.10
2007,08,11,00,59,13.10
2007,08,11,01,00,13.00
2007,08,11,01,01,13.00
2007,08,11,01,02,13.00
2007,08,11,01,03,13.00
2007,08,11,01,04,13.00
2007,08,11,01,05,13.00
2007,08,11,01,06,13.00
2007,08,11,01,07,13.00
2007,08,11,01,08,13.00
2007,08,11,01,09,13.00
2007,08,11,01,10,13.00
2007,08,11,01,11,13.00
2007,08,11,01,12,13.10
2007,08,11,01,13,13.10
2007,08,11,01,14,13.10
2007,08,11,01,15,13.10
2007,08,11,01,16,13.10
2007,08,11,01,17,13.20
2007,08,11,01,18,13.20
2007,08,11,01,19,13.20
2007,08,11,01,20,13.20
2007,08,11,01,21,13.20
2007,08,11,01,22,13.20
2007,08,11,01,23,13.20
2007,08,11,01,24,13.20
2007,08,11,01,25,13.10
2007,08,11,01,26,13.10
2007,08,11,01,27,13.10
2007,08,11,01,28,13.10
2007,08,11,01,29,13.00
2007,08,11,01,30,13.00
2007,08,11,01,31,12.90
2007,08,11,01,32,12.90
2007,08,11,01,33,12.90
2007,08,11,01,34,12.80
2007,08,11,01,35,12.80
2007,08,11,01,36,12.80
2007,08,11,01,37,12.80
2007,08,11,01,38,12.70
2007,08,11,01,39,12.60
2007,08,11,01,40,12.60
2007,08,11,01,41,12.50
2007,08,11,01,42,12.50
2007,08,11,01,43,12.50
2007,08,11,01,44,12.40
2007,08,11,01,45,12.40
2007,08,11,01,46,12.40
2007,08,11,01,47,12.30
2007,08,11,01,48,12.30
2007,08,11,01,49,12.30
2007,08,11,01,50,12.30
2007,08,11,01,51,12.30
2007,08,11,01,52,12.30
2007,08,11,01,53,12.20
2007,08,11,01,54,12.20
2007,08,11,01,55,12.20
2007,08,11,01,56,12.20
2007,08,11,01,57,12.10
2007,08,11,01,58,12.10
2007,08,11,01,59,12.10
2007,08,11,02,00,12.10
2007,08,11,02,01,12.10
2007,08,11,02,02,12.10
2007,08,11,02,03,12.10
2007,08,11,02,04,12.10
2007,08,11,02,05,12.00
2007,08,11,02,06,12.00
2007,08,11,02,07,12.00
2007,08,11,02,08,12.00
2007,08,11,02,09,11.90
2007,08,11,02,10,11.90
2007,08,11,02,11,11.90
2007,08,11,02,12,11.80
2007,08,11,02,13,11.80
2007,08,11,02,14,11.80
2007,08,11,02,15,11.80
2007,08,11,02,16,11.80
2007,08,11,02,17,11.80
2007,08,11,02,18,11.80
2007,08,11,02,19,11.80
2007,08,11,02,20,11.80
2007,08,11,02,21,11.80
2007,08,11,02,22,11.80
2007,08,11,02,23,11.80
2007,08,11,02,24,11.70
2007,08,11,02,25,11.70
2007,08,11,02,26,11.70
2007,08,11,02,27,11.80
2007,08,11,02,28,11.80
2007,08,11,02,29,11.80
2007,08,11,02,30,11.80
2007,08,11,02,31,11.80
2007,08,11,02,32,11.80
2007,08,11,02,33,11.80
2007,08,11,02,34,11.80
2007,08,11,02,35,11.80
2007,08,11,02,36,11.80
2007,08,11,02,37,11.80
2007,08,11,02,38,11.90
2007,08,11,02,39,11.90
2007,08,11,02,40,11.90
2007,08,11,02,41,11.90
2007,08,11,02,42,11.90
2007,08,11,02,43,11.90
2007,08,11,02,44,11.90
2007,08,11,02,45,11.90
2007,08,11,02,46,11.90
2007,08,11,02,47,12.00
2007,08,11,02,48,12.00
2007,08,11,02,49,12.00
2007,08,11,02,50,12.10
2007,08,11,02,51,12.10
2007,08,11,02,52,12.10
2007,08,11,02,53,12.10
2007,08,11,02,54,12.10
2007,08,11,02,55,12.10
2007,08,11,02,56,12.10
2007,08,11,02,57,12.10
2007,08,11,02,58,12.10
2007,08,11,02,59,12.10
2007,08,11,03,00,12.10
2007,08,11,03,01,12.10
2007,08,11,03,02,12.00
2007,08,11,03,03,12.00
2007,08,11,03,04,12.00
2007,08,11,03,05,12.00
2007,08,11,03,06,12.00
2007,08,11,03,07,12.00
2007,08,11,03,08,12.00
2007,08,11,03,09,12.10
2007,08,11,03,10,12.10
2007,08,11,03,11,12.10
2007,08,11,03,12,12.10
2007,08,11,03,13,12.10
2007,08,11,03,14,12.10
2007,08,11,03,15,12.20
2007,08,11,03,16,12.20
2007,08,11,03,17,12.20
2007,08,11,03,18,12.20
2007,08,11,03,19,12.20
2007,08,11,03,20,12.20
2007,08,11,03,21,12.20
2007,08,11,03,22,12.10
2007,08,11,03,23,12.10
2007,08,11,03,24,12.10
2007,08,11,03,25,12.10
2007,08,11,03,26,12.00
2007,08,11,03,27,12.00
2007,08,11,03,28,12.00
2007,08,11,03,29,12.00
2007,08,11,03,30,11.90
2007,08,11,03,31,11.90
2007,08,11,03,32,11.90
2007,08,11,03,33,11.90
2007,08,11,03,34,11.90
2007,08,11,03,35,11.90
2007,08,11,03,36,11.90
2007,08,11,03,37,11.90
2007,08,11,03,38,11.90
2007,08,11,03,39,11.80
2007,08,11,03,40,11.80
2007,08,11,03,41,11.80
2007,08,11,03,42,11.80
2007,08,11,03,43,11.80
2007,08,11,03,44,11.80
2007,08,11,03,45,11.80
2007,08,11,03,46,11.80
2007,08,11,03,47,11.80
2007,08,11,03,48,11.80
2007,08,11,03,49,11.80
2007,08,11,03,50,11.80
2007,08,11,03,51,11.80
2007,08,11,03,52,11.70
2007,08,11,03,53,11.70
2007,08,11,03,54,11.70
2007,08,11,03,55,11.70
2007,08,11,03,56,11.70
2007,08,11,03,57,11.60
2007,08,11,03,58,11.60
2007,08,11,03,59,11.60
2007,08,11,04,00,11.60
2007,08,11,04,01,11.60
2007,08,11,04,02,11.60
2007,08,11,04,03,11.60
2007,08,11,04,04,11.60
2007,08,11,04,05,11.60
2007,08,11,04,06,11.60
2007,08,11,04,07,11.60
2007,08,11,04,08,11.50
2007,08,11,04,09,11.40
2007,08,11,04,10,11.40
2007,08,11,04,11,11.40
2007,08,11,04,12,11.40
2007,08,11,04,13,11.40
2007,08,11,04,14,11.40
2007,08,11,04,15,11.40
2007,08,11,04,16,11.40
2007,08,11,04,17,11.40
2007,08,11,04,18,11.40
2007,08,11,04,19,11.30
2007,08,11,04,20,11.30
2007,08,11,04,21,11.30
2007,08,11,04,22,11.30
2007,08,11,04,23,11.30
2007,08,11,04,24,11.20
2007,08,11,04,25,11.20
2007,08,11,04,26,11.20
2007,08,11,04,27,11.20
2007,08,11,04,28,11.10
2007,08,11,04,29,11.10
2007,08,11,04,30,11.10
2007,08,11,04,31,11.10
2007,08,11,04,32,11.10
2007,08,11,04,33,11.10
2007,08,11,04,34,11.10
2007,08,11,04,35,11.10
2007,08,11,04,36,11.10
2007,08,11,04,37,11.10
2007,08,11,04,38,11.10
2007,08,11,04,39,11.10
2007,08,11,04,40,11.00
2007,08,11,04,41,10.90
2007,08,11,04,42,10.90
2007,08,11,04,43,10.90
2007,08,11,04,44,10.90
2007,08,11,04,45,10.90
2007,08,11,04,46,10.90
2007,08,11,04,47,10.90
2007,08,11,04,48,10.90
2007,08,11,04,49,10.90
2007,08,11,04,50,10.90
2007,08,11,04,51,10.90
2007,08,11,04,52,10.90
2007,08,11,04,53,10.90
2007,08,11,04,54,10.90
2007,08,11,04,55,10.90
2007,08,11,04,56,10.90
2007,08,11,04,57,10.90
2007,08,11,04,58,10.90
2007,08,11,04,59,10.90
2007,08,11,05,00,10.90
2007,08,11,05,01,10.90
2007,08,11,05,02,10.90
2007,08,11,05,03,10.90
2007,08,11,05,04,10.90
2007,08,11,05,05,10.90
2007,08,11,05,06,10.80
2007,08,11,05,07,10.80
2007,08,11,05,08,10.80
2007,08,11,05,09,10.80
2007,08,11,05,10,10.80
2007,08,11,05,11,10.70
2007,08,11,05,12,10.70
2007,08,11,05,13,10.70
2007,08,11,05,14,10.70
2007,08,11,05,15,10.70
2007,08,11,05,16,10.70
2007,08,11,05,17,10.70
2007,08,11,05,18,10.70
2007,08,11,05,19,10.70
2007,08,11,05,20,10.70
2007,08,11,05,21,10.60
2007,08,11,05,22,10.60
2007,08,11,05,23,10.60
2007,08,11,05,24,10.60
2007,08,11,05,25,10.60
2007,08,11,05,26,10.60
2007,08,11,05,27,10.60
2007,08,11,05,28,10.60
2007,08,11,05,29,10.60
2007,08,11,05,30,10.60
2007,08,11,05,31,10.70
2007,08,11,05,32,10.70
2007,08,11,05,33,10.60
2007,08,11,05,34,10.60
2007,08,11,05,35,10.60
2007,08,11,05,36,10.60
2007,08,11,05,37,10.60
2007,08,11,05,38,10.60
2007,08,11,05,39,10.60
2007,08,11,05,40,10.60
2007,08,11,05,41,10.60
2007,08,11,05,42,10.60
2007,08,11,05,43,10.60
2007,08,11,05,44,10.40
2007,08,11,05,45,10.40
2007,08,11,05,46,10.40
2007,08,11,05,47,10.40
2007,08,11,05,48,10.40
2007,08,11,05,49,10.40
2007,08,11,05,50,10.40
2007,08,11,05,51,10.60
2007,08,11,05,52,10.60
2007,08,11,05,53,10.60
2007,08,11,05,54,10.60
2007,08,11,05,55,10.60
2007,08,11,05,56,10.60
2007,08,11,05,57,10.60
2007,08,11,05,58,10.60
2007,08,11,05,59,10.60
2007,08,11,06,00,10.60
2007,08,11,06,01,10.60
2007,08,11,06,02,10.60
2007,08,11,06,03,10.60
2007,08,11,06,04,10.60
2007,08,11,06,05,10.60
2007,08,11,06,06,10.60
2007,08,11,06,07,10.60
2007,08,11,06,08,10.60
2007,08,11,06,09,10.60
2007,08,11,06,10,10.60
2007,08,11,06,11,10.60
2007,08,11,06,12,10.70
2007,08,11,06,13,10.70
2007,08,11,06,14,10.70
2007,08,11,06,15,10.70
2007,08,11,06,16,10.80
2007,08,11,06,17,10.80
2007,08,11,06,18,10.80
2007,08,11,06,19,10.90
2007,08,11,06,20,10.90
2007,08,11,06,21,10.90
2007,08,11,06,22,10.90
2007,08,11,06,23,10.90
2007,08,11,06,24,10.90
2007,08,11,06,25,10.90
2007,08,11,06,26,10.90
2007,08,11,06,27,10.90
2007,08,11,06,28,10.90
2007,08,11,06,29,10.90
2007,08,11,06,30,10.90
2007,08,11,06,31,10.90
2007,08,11,06,32,10.90
2007,08,11,06,33,10.90
2007,08,11,06,34,10.90
2007,08,11,06,35,10.90
2007,08,11,06,36,11.10
2007,08,11,06,37,11.10
2007,08,11,06,38,11.10
2007,08,11,06,39,11.10
2007,08,11,06,40,11.10
2007,08,11,06,41,11.10
2007,08,11,06,42,11.10
2007,08,11,06,43,11.10
2007,08,11,06,44,11.20
2007,08,11,06,45,11.20
2007,08,11,06,46,11.20
2007,08,11,06,47,11.20
2007,08,11,06,48,11.30
2007,08,11,06,49,11.30
2007,08,11,06,50,11.30
2007,08,11,06,51,11.30
2007,08,11,06,52,11.30
2007,08,11,06,53,11.30
2007,08,11,06,54,11.40
2007,08,11,06,55,11.40
2007,08,11,06,56,11.40
2007,08,11,06,57,11.40
2007,08,11,06,58,11.40
2007,08,11,06,59,11.40
2007,08,11,07,00,11.40
2007,08,11,07,01,11.50
2007,08,11,07,02,11.60
2007,08,11,07,03,11.60
2007,08,11,07,04,11.60
2007,08,11,07,05,11.60
2007,08,11,07,06,11.70
2007,08,11,07,07,11.80
2007,08,11,07,08,11.80
2007,08,11,07,09,11.80
2007,08,11,07,10,11.90
2007,08,11,07,11,11.90
2007,08,11,07,12,11.90
2007,08,11,07,13,11.90
2007,08,11,07,14,12.00
2007,08,11,07,15,12.00
2007,08,11,07,16,12.00
2007,08,11,07,17,12.00
2007,08,11,07,18,11.90
2007,08,11,07,19,11.90
2007,08,11,07,20,11.90
2007,08,11,07,21,12.00
2007,08,11,07,22,12.00
2007,08,11,07,23,12.00
2007,08,11,07,24,12.00
2007,08,11,07,25,12.00
2007,08,11,07,26,12.00
2007,08,11,07,27,12.10
2007,08,11,07,28,12.10
2007,08,11,07,29,12.10
2007,08,11,07,30,12.20
2007,08,11,07,31,12.20
2007,08,11,07,32,12.20
2007,08,11,07,33,12.30
2007,08,11,07,34,12.30
2007,08,11,07,35,12.30
2007,08,11,07,36,12.30
2007,08,11,07,37,12.40
2007,08,11,07,38,12.40
2007,08,11,07,39,12.50
2007,08,11,07,40,12.50
2007,08,11,07,41,12.50
2007,08,11,07,42,12.60
2007,08,11,07,43,12.60
2007,08,11,07,44,12.60
2007,08,11,07,45,12.70
2007,08,11,07,46,12.70
2007,08,11,07,47,12.80
2007,08,11,07,48,12.80
2007,08,11,07,49,12.80
2007,08,11,07,50,12.80
2007,08,11,07,51,12.80
2007,08,11,07,52,12.80
2007,08,11,07,53,12.80
2007,08,11,07,54,12.80
2007,08,11,07,55,12.80
2007,08,11,07,56,12.80
2007,08,11,07,57,12.80
2007,08,11,07,58,12.80
2007,08,11,07,59,12.90
2007,08,11,08,00,12.90
2007,08,11,08,01,13.00
2007,08,11,08,02,13.10
2007,08,11,08,03,13.10
2007,08,11,08,04,13.10
2007,08,11,08,05,13.20
2007,08,11,08,06,13.20
2007,08,11,08,07,13.30
2007,08,11,08,08,13.30
2007,08,11,08,09,13.40
2007,08,11,08,10,13.50
2007,08,11,08,11,13.60
2007,08,11,08,12,13.60
2007,08,11,08,13,13.70
2007,08,11,08,14,13.70
2007,08,11,08,15,13.70
2007,08,11,08,16,13.80
2007,08,11,08,17,13.80
2007,08,11,08,18,13.90
2007,08,11,08,19,13.90
2007,08,11,08,20,14.00
2007,08,11,08,21,14.00
2007,08,11,08,22,14.10
2007,08,11,08,23,14.10
2007,08,11,08,24,14.20
2007,08,11,08,25,14.20
2007,08,11,08,26,14.20
2007,08,11,08,27,14.20
2007,08,11,08,28,14.20
2007,08,11,08,29,14.20
2007,08,11,08,30,14.20
2007,08,11,08,31,14.20
2007,08,11,08,32,14.20
2007,08,11,08,33,14.30
2007,08,11,08,34,14.40
2007,08,11,08,35,14.40
2007,08,11,08,36,14.50
2007,08,11,08,37,14.50
2007,08,11,08,38,14.50
2007,08,11,08,39,14.50
2007,08,11,08,40,14.60
2007,08,11,08,41,14.60
2007,08,11,08,42,14.60
2007,08,11,08,43,14.60
2007,08,11,08,44,14.60
2007,08,11,08,45,14.60
2007,08,11,08,46,14.70
2007,08,11,08,47,14.70
2007,08,11,08,48,14.70
2007,08,11,08,49,14.70
2007,08,11,08,50,14.70
2007,08,11,08,51,14.80
2007,08,11,08,52,14.80
2007,08,11,08,53,14.80
2007,08,11,08,54,14.80
2007,08,11,08,55,14.80
2007,08,11,08,56,14.80
2007,08,11,08,57,14.80
2007,08,11,08,58,14.70
2007,08,11,08,59,14.70
2007,08,11,09,00,14.70
2007,08,11,09,01,14.70
2007,08,11,09,02,14.80
2007,08,11,09,03,14.70
2007,08,11,09,04,14.70
2007,08,11,09,05,14.70
2007,08,11,09,06,14.70
2007,08,11,09,07,14.70
2007,08,11,09,08,14.70
2007,08,11,09,09,14.60
2007,08,11,09,10,14.50
2007,08,11,09,11,14.40
2007,08,11,09,12,14.40
2007,08,11,09,13,14.30
2007,08,11,09,14,14.30
2007,08,11,09,15,14.30
2007,08,11,09,16,14.30
2007,08,11,09,17,14.40
2007,08,11,09,18,14.40
2007,08,11,09,19,14.40
2007,08,11,09,20,14.40
2007,08,11,09,21,14.40
2007,08,11,09,22,14.40
2007,08,11,09,23,14.50
2007,08,11,09,24,14.50
2007,08,11,09,25,14.50
2007,08,11,09,26,14.60
2007,08,11,09,27,14.60
2007,08,11,09,28,14.70
2007,08,11,09,29,14.80
2007,08,11,09,30,14.80
2007,08,11,09,31,14.80
2007,08,11,09,32,14.90
2007,08,11,09,33,14.90
2007,08,11,09,34,14.90
2007,08,11,09,35,15.00
2007,08,11,09,36,15.00
2007,08,11,09,37,15.10
2007,08,11,09,38,15.10
2007,08,11,09,39,15.10
2007,08,11,09,40,15.20
2007,08,11,09,41,15.30
2007,08,11,09,42,15.30
2007,08,11,09,43,15.30
2007,08,11,09,44,15.20
2007,08,11,09,45,15.20
2007,08,11,09,46,15.10
2007,08,11,09,47,15.10
2007,08,11,09,48,15.10
2007,08,11,09,49,15.10
2007,08,11,09,50,15.10
2007,08,11,09,51,15.10
2007,08,11,09,52,15.20
2007,08,11,09,53,15.20
2007,08,11,09,54,15.30
2007,08,11,09,55,15.20
2007,08,11,09,56,15.20
2007,08,11,09,57,15.10
2007,08,11,09,58,15.10
2007,08,11,09,59,15.00
2007,08,11,10,00,14.90
2007,08,11,10,01,14.80
2007,08,11,10,02,14.70
2007,08,11,10,03,14.70
2007,08,11,10,04,14.60
2007,08,11,10,05,14.50
2007,08,11,10,06,14.40
2007,08,11,10,07,14.40
2007,08,11,10,08,14.40
2007,08,11,10,09,14.40
2007,08,11,10,10,14.40
2007,08,11,10,11,14.50
2007,08,11,10,12,14.60
2007,08,11,10,13,14.80
2007,08,11,10,14,14.80
2007,08,11,10,15,14.80
2007,08,11,10,16,14.80
2007,08,11,10,17,14.80
2007,08,11,10,18,14.70
2007,08,11,10,19,14.60
2007,08,11,10,20,14.60
2007,08,11,10,21,14.60
2007,08,11,10,22,14.70
2007,08,11,10,23,14.80
2007,08,11,10,24,14.80
2007,08,11,10,25,14.70
2007,08,11,10,26,14.60
2007,08,11,10,27,14.50
2007,08,11,10,28,14.50
2007,08,11,10,29,14.50
2007,08,11,10,30,14.50
2007,08,11,10,31,14.60
2007,08,11,10,32,14.70
2007,08,11,10,33,14.80
2007,08,11,10,34,14.80
2007,08,11,10,35,14.70
2007,08,11,10,36,14.60
2007,08,11,10,37,14.60
2007,08,11,10,38,14.60
2007,08,11,10,39,14.70
2007,08,11,10,40,14.70
2007,08,11,10,41,14.60
2007,08,11,10,42,14.50
2007,08,11,10,43,14.40
2007,08,11,10,44,14.30
2007,08,11,10,45,14.30
2007,08,11,10,46,14.20
2007,08,11,10,47,14.20
2007,08,11,10,48,14.20
2007,08,11,10,49,14.30
2007,08,11,10,50,14.30
2007,08,11,10,51,14.30
2007,08,11,10,52,14.30
2007,08,11,10,53,14.40
2007,08,11,10,54,14.40
2007,08,11,10,55,14.40
2007,08,11,10,56,14.50
2007,08,11,10,57,14.50
2007,08,11,10,58,14.50
2007,08,11,10,59,14.40
2007,08,11,11,00,14.50
2007,08,11,11,01,14.50
2007,08,11,11,02,14.50
2007,08,11,11,03,14.60
2007,08,11,11,04,14.60
2007,08,11,11,05,14.50
2007,08,11,11,06,14.50
2007,08,11,11,07,14.40
2007,08,11,11,08,14.40
2007,08,11,11,09,14.40
2007,08,11,11,10,14.40
2007,08,11,11,11,14.40
2007,08,11,11,12,14.40
2007,08,11,11,13,14.30
2007,08,11,11,14,14.30
2007,08,11,11,15,14.30
2007,08,11,11,16,14.30
2007,08,11,11,17,14.20
2007,08,11,11,18,14.20
2007,08,11,11,19,14.20
2007,08,11,11,20,14.20
2007,08,11,11,21,14.30
2007,08,11,11,22,14.30
2007,08,11,11,23,14.30
2007,08,11,11,24,14.40
2007,08,11,11,25,14.50
2007,08,11,11,26,14.60
2007,08,11,11,27,14.60
2007,08,11,11,28,14.70
2007,08,11,11,29,14.80
2007,08,11,11,30,14.80
2007,08,11,11,31,15.00
2007,08,11,11,32,15.10
2007,08,11,11,33,15.10
2007,08,11,11,34,15.10
2007,08,11,11,35,15.10
2007,08,11,11,36,15.10
2007,08,11,11,37,15.20
2007,08,11,11,38,15.20
2007,08,11,11,39,15.20
2007,08,11,11,40,15.20
2007,08,11,11,41,15.10
2007,08,11,11,42,15.10
2007,08,11,11,43,14.80
2007,08,11,11,44,14.80
2007,08,11,11,45,14.70
2007,08,11,11,46,14.70
2007,08,11,11,47,14.70
2007,08,11,11,48,14.70
2007,08,11,11,49,14.80
2007,08,11,11,50,14.80
2007,08,11,11,51,14.90
2007,08,11,11,52,15.00
2007,08,11,11,53,15.00
2007,08,11,11,54,15.00
2007,08,11,11,55,15.00
2007,08,11,11,56,15.00
2007,08,11,11,57,14.90
2007,08,11,11,58,14.90
2007,08,11,11,59,14.90
2007,08,11,12,00,14.80
2007,08,11,12,01,14.80
2007,08,11,12,02,14.80
2007,08,11,12,03,14.80
2007,08,11,12,04,14.90
2007,08,11,12,05,14.90
2007,08,11,12,06,14.90
2007,08,11,12,07,14.90
2007,08,11,12,08,14.90
2007,08,11,12,09,14.80
2007,08,11,12,10,14.80
2007,08,11,12,11,14.90
2007,08,11,12,12,15.00
2007,08,11,12,13,15.10
2007,08,11,12,14,15.10
2007,08,11,12,15,15.20
2007,08,11,12,16,15.10
2007,08,11,12,17,15.10
2007,08,11,12,18,15.10
2007,08,11,12,19,15.10
2007,08,11,12,20,15.10
2007,08,11,12,21,15.10
2007,08,11,12,22,15.00
2007,08,11,12,23,15.00
2007,08,11,12,24,15.00
2007,08,11,12,25,14.90
2007,08,11,12,26,14.90
2007,08,11,12,27,14.90
2007,08,11,12,28,15.00
2007,08,11,12,29,15.00
2007,08,11,12,30,15.20
2007,08,11,12,31,15.20
2007,08,11,12,32,15.20
2007,08,11,12,33,15.20
2007,08,11,12,34,15.20
2007,08,11,12,35,15.20
2007,08,11,12,36,15.20
2007,08,11,12,37,15.30
2007,08,11,12,38,15.30
2007,08,11,12,39,15.50
2007,08,11,12,40,15.50
2007,08,11,12,41,15.60
2007,08,11,12,42,15.70
2007,08,11,12,43,15.80
2007,08,11,12,44,15.80
2007,08,11,12,45,15.90
2007,08,11,12,46,16.10
2007,08,11,12,47,16.10
2007,08,11,12,48,16.10
2007,08,11,12,49,16.20
2007,08,11,12,50,16.30
2007,08,11,12,51,16.40
2007,08,11,12,52,16.30
2007,08,11,12,53,16.30
2007,08,11,12,54,16.30
2007,08,11,12,55,16.40
2007,08,11,12,56,16.50
2007,08,11,12,57,16.60
2007,08,11,12,58,16.70
2007,08,11,12,59,16.70
2007,08,11,13,00,16.70
2007,08,11,13,01,16.70
2007,08,11,13,02,16.70
2007,08,11,13,03,16.70
2007,08,11,13,04,16.70
2007,08,11,13,05,16.70
2007,08,11,13,06,16.80
2007,08,11,13,07,16.80
2007,08,11,13,08,16.90
2007,08,11,13,09,17.00
2007,08,11,13,10,17.10
2007,08,11,13,11,17.10
2007,08,11,13,12,17.10
2007,08,11,13,13,17.20
2007,08,11,13,14,17.20
2007,08,11,13,15,17.30
2007,08,11,13,16,17.30
2007,08,11,13,17,17.40
2007,08,11,13,18,17.50
2007,08,11,13,19,17.60
2007,08,11,13,20,17.60
2007,08,11,13,21,17.70
2007,08,11,13,22,17.70
2007,08,11,13,23,17.80
2007,08,11,13,24,17.80
2007,08,11,13,25,17.80
2007,08,11,13,26,17.70
2007,08,11,13,27,17.70
2007,08,11,13,28,17.70
2007,08,11,13,29,17.80
2007,08,11,13,30,17.70
2007,08,11,13,31,17.70
2007,08,11,13,32,17.70
2007,08,11,13,33,17.70
2007,08,11,13,34,17.80
2007,08,11,13,35,17.80
2007,08,11,13,36,17.90
2007,08,11,13,37,17.80
2007,08,11,13,38,17.80
2007,08,11,13,39,17.80
2007,08,11,13,40,17.80
2007,08,11,13,41,17.80
2007,08,11,13,42,17.80
2007,08,11,13,43,17.80
2007,08,11,13,44,17.80
2007,08,11,13,45,17.80
2007,08,11,13,46,17.80
2007,08,11,13,47,17.80
2007,08,11,13,48,17.70
2007,08,11,13,49,17.70
2007,08,11,13,50,17.60
2007,08,11,13,51,17.70
2007,08,11,13,52,17.80
2007,08,11,13,53,17.90
2007,08,11,13,54,17.90
2007,08,11,13,55,18.00
2007,08,11,13,56,18.10
2007,08,11,13,57,18.20
2007,08,11,13,58,18.30
2007,08,11,13,59,18.40
2007,08,11,14,00,18.50
2007,08,11,14,01,18.50
2007,08,11,14,02,18.60
2007,08,11,14,03,18.60
2007,08,11,14,04,18.70
2007,08,11,14,05,18.80
2007,08,11,14,06,18.90
2007,08,11,14,07,18.90
2007,08,11,14,08,19.10
2007,08,11,14,09,19.20
2007,08,11,14,10,19.30
2007,08,11,14,11,19.40
2007,08,11,14,12,19.50
2007,08,11,14,13,19.50
2007,08,11,14,14,19.60
2007,08,11,14,15,19.70
2007,08,11,14,16,19.70
2007,08,11,14,17,19.80
2007,08,11,14,18,19.80
2007,08,11,14,19,19.80
2007,08,11,14,20,19.80
2007,08,11,14,21,19.70
2007,08,11,14,22,19.70
2007,08,11,14,23,19.70
2007,08,11,14,24,19.70
2007,08,11,14,25,19.70
2007,08,11,14,26,19.70
2007,08,11,14,27,19.70
2007,08,11,14,28,19.70
2007,08,11,14,29,19.70
2007,08,11,14,30,19.80
2007,08,11,14,31,19.80
2007,08,11,14,32,19.70
2007,08,11,14,33,19.70
2007,08,11,14,34,19.80
2007,08,11,14,35,19.80
2007,08,11,14,36,19.80
2007,08,11,14,37,19.80
2007,08,11,14,38,19.70
2007,08,11,14,39,19.70
2007,08,11,14,40,19.70
2007,08,11,14,41,19.70
2007,08,11,14,42,19.70
2007,08,11,14,43,19.70
2007,08,11,14,44,19.70
2007,08,11,14,45,19.70
2007,08,11,14,46,19.70
2007,08,11,14,47,19.70
2007,08,11,14,48,19.60
2007,08,11,14,49,19.50
2007,08,11,14,50,19.50
2007,08,11,14,51,19.40
2007,08,11,14,52,19.20
2007,08,11,14,53,19.10
2007,08,11,14,54,19.10
2007,08,11,14,55,19.10
2007,08,11,14,56,19.00
2007,08,11,14,57,18.90
2007,08,11,14,58,18.90
2007,08,11,14,59,18.90
2007,08,11,15,00,18.90
2007,08,11,15,01,18.80
2007,08,11,15,02,18.80
2007,08,11,15,03,18.70
2007,08,11,15,04,18.70
2007,08,11,15,05,18.70
2007,08,11,15,06,18.70
2007,08,11,15,07,18.70
2007,08,11,15,08,18.70
2007,08,11,15,09,18.80
2007,08,11,15,10,18.90
2007,08,11,15,11,18.90
2007,08,11,15,12,19.10
2007,08,11,15,13,19.10
2007,08,11,15,14,19.20
2007,08,11,15,15,19.30
2007,08,11,15,16,19.30
2007,08,11,15,17,19.40
2007,08,11,15,18,19.40
2007,08,11,15,19,19.40
2007,08,11,15,20,19.40
2007,08,11,15,21,19.40
2007,08,11,15,22,19.40
2007,08,11,15,23,19.40
2007,08,11,15,24,19.40
2007,08,11,15,25,19.40
2007,08,11,15,26,19.40
2007,08,11,15,27,19.40
2007,08,11,15,28,19.30
2007,08,11,15,29,19.40
2007,08,11,15,30,19.40
2007,08,11,15,31,19.50
2007,08,11,15,32,19.60
2007,08,11,15,33,19.60
2007,08,11,15,34,19.60
2007,08,11,15,35,19.60
2007,08,11,15,36,19.70
2007,08,11,15,37,19.70
2007,08,11,15,38,19.80
2007,08,11,15,39,19.70
2007,08,11,15,40,19.80
2007,08,11,15,41,19.80
2007,08,11,15,42,19.80
2007,08,11,15,43,19.80
2007,08,11,15,44,19.80
2007,08,11,15,45,19.80
2007,08,11,15,46,19.90
2007,08,11,15,47,19.90
2007,08,11,15,48,19.90
2007,08,11,15,49,19.90
2007,08,11,15,50,19.90
2007,08,11,15,51,19.90
2007,08,11,15,52,19.90
2007,08,11,15,53,19.90
2007,08,11,15,54,19.90
2007,08,11,15,55,19.90
2007,08,11,15,56,19.90
2007,08,11,15,57,19.90
2007,08,11,15,58,19.90
2007,08,11,15,59,19.90
2007,08,11,16,00,19.90
2007,08,11,16,01,19.90
2007,08,11,16,02,19.90
2007,08,11,16,03,19.80
2007,08,11,16,04,19.80
2007,08,11,16,05,19.80
2007,08,11,16,06,19.80
2007,08,11,16,07,19.80
2007,08,11,16,08,19.80
2007,08,11,16,09,19.80
2007,08,11,16,10,19.80
2007,08,11,16,11,19.70
2007,08,11,16,12,19.70
2007,08,11,16,13,19.70
2007,08,11,16,14,19.70
2007,08,11,16,15,19.70
2007,08,11,16,16,19.70
2007,08,11,16,17,19.70
2007,08,11,16,18,19.70
2007,08,11,16,19,19.70
2007,08,11,16,20,19.80
2007,08,11,16,21,19.80
2007,08,11,16,22,19.80
2007,08,11,16,23,19.80
2007,08,11,16,24,19.70
2007,08,11,16,25,19.70
2007,08,11,16,26,19.60
2007,08,11,16,27,19.60
2007,08,11,16,28,19.50
2007,08,11,16,29,19.50
2007,08,11,16,30,19.50
2007,08,11,16,31,19.50
2007,08,11,16,32,19.60
2007,08,11,16,33,19.60
2007,08,11,16,34,19.50
2007,08,11,16,35,19.50
2007,08,11,16,36,19.50
2007,08,11,16,37,19.60
2007,08,11,16,38,19.60
2007,08,11,16,39,19.60
2007,08,11,16,40,19.70
2007,08,11,16,41,19.70
2007,08,11,16,42,19.70
2007,08,11,16,43,19.70
2007,08,11,16,44,19.80
2007,08,11,16,45,19.80
2007,08,11,16,46,19.90
2007,08,11,16,47,19.90
2007,08,11,16,48,19.90
2007,08,11,16,49,19.80
2007,08,11,16,50,19.80
2007,08,11,16,51,19.70
2007,08,11,16,52,19.70
2007,08,11,16,53,19.80
2007,08,11,16,54,19.70
2007,08,11,16,55,19.70
2007,08,11,16,56,19.60
2007,08,11,16,57,19.60
2007,08,11,16,58,19.50
2007,08,11,16,59,19.40
2007,08,11,17,00,19.20
2007,08,11,17,01,19.10
2007,08,11,17,02,19.00
2007,08,11,17,03,18.90
2007,08,11,17,04,18.90
2007,08,11,17,05,18.80
2007,08,11,17,06,18.70
2007,08,11,17,07,18.70
2007,08,11,17,08,18.60
2007,08,11,17,09,18.50
2007,08,11,17,10,18.50
2007,08,11,17,11,18.50
2007,08,11,17,12,18.50
2007,08,11,17,13,18.50
2007,08,11,17,14,18.40
2007,08,11,17,15,18.40
2007,08,11,17,16,18.40
2007,08,11,17,17,18.40
2007,08,11,17,18,18.40
2007,08,11,17,19,18.30